Anchorage Merrill, AK

4:24 AM AKDT on October 17, 2017 (GMT -0800)
Merrill

Weather History for PAMR - April, 2014

Change the Weather History Date:

Friday, April 4, 2014

  Actual Average Record
Temperature  
Mean Temperature 36 °F -  
Max Temperature 44 °F 38 °F 46 °F (2011)
Min Temperature 30 °F 22 °F 12 °F (2002)
Degree Days  
Heating Degree Days 28    
Moisture  
Dew Point 21 °F    
Average Humidity 58    
Maximum Humidity 76    
Minimum Humidity 38    
Precipitation  
Precipitation 0.00 in - - ()
Snow  
Snow 0.00 in - - ()
Snow Depth 6.00 in    
Sea Level Pressure  
Sea Level Pressure 29.51 in    
Wind  
Wind Speed 2 mph (NNW)    
Max Wind Speed 8 mph    
Max Gust Speed -    
Visibility 10 miles    
Events      
Averages and records for this station are not official NWS values.
T = Trace of Precipitation, MM = Missing Value Source: NWS Daily Summary

Daily Weather History Graph

Daily Weather History Graph

Search for Another Location

Airport or City:

Trip Planner

Search our weather history database for the weather conditions in past years. The results will help you decide how hot, cold, wet, or windy it might be!

Date:

Astronomy

Apr. 04, 2014 Rise Set
Actual Time 7:12 AM AKDT 8:53 PM AKDT
Civil Twilight 6:27 AM AKDT 9:39 PM AKDT
Nautical Twilight 5:29 AM AKDT 10:37 PM AKDT
Astronomical Twilight 4:18 AM AKDT 11:50 PM AKDT
Moon 9:34 AM AKDT (4/4) 2:22 AM AKDT (4/4)
Length of Visible Light 15h 12m
Length of Day
13h 41m
Waxing Crescent, 27% of the Moon is Illuminated
Apr 4
Waxing Crescent
Apr 7
First Quarter
Apr 14
Full
Apr 21
Last Quarter
Apr 28
New

Hourly Weather History & Observations

Time (AKDT) Temp. Windchill Dew Point Humidity Pressure Visibility Wind Dir Wind Speed Gust Speed Precip Events Conditions
12:53 AM 33.1 °F - 21.9 °F 64% 29.57 in 10.0 mi Calm Calm - N/A   Mostly Cloudy
1:53 AM 32.0 °F - 23.0 °F 69% 29.57 in 10.0 mi Calm Calm - N/A   Scattered Clouds
2:53 AM 30.9 °F - 21.9 °F 69% 29.55 in 10.0 mi Calm Calm - N/A   Scattered Clouds
3:53 AM 30.9 °F - 24.1 °F 76% 29.55 in 10.0 mi Calm Calm - N/A   Mostly Cloudy
4:53 AM 30.0 °F - 23.0 °F 75% 29.54 in 10.0 mi Calm Calm - N/A   Mostly Cloudy
5:53 AM 30.0 °F - 21.9 °F 72% 29.54 in 10.0 mi Calm Calm - N/A   Mostly Cloudy
6:53 AM 30.0 °F 26.5 °F 23.0 °F 75% 29.53 in 10.0 mi NNW 3.5 mph - N/A   Partly Cloudy
7:53 AM 30.0 °F - 21.0 °F 69% 29.53 in 10.0 mi Calm Calm - N/A   Scattered Clouds
8:53 AM 30.9 °F 27.5 °F 19.0 °F 61% 29.53 in 10.0 mi NW 3.5 mph - N/A   Mostly Cloudy
9:53 AM 32.0 °F 28.7 °F 19.0 °F 59% 29.53 in 10.0 mi NNW 3.5 mph - N/A   Mostly Cloudy
10:53 AM 34.0 °F 29.8 °F 19.9 °F 56% 29.53 in 10.0 mi NW 4.6 mph - N/A   Overcast
11:53 AM 36.0 °F 33.3 °F 17.1 °F 46% 29.52 in 10.0 mi NNW 3.5 mph - N/A   Overcast
12:53 PM 37.0 °F 34.5 °F 17.1 °F 44% 29.52 in 10.0 mi Variable 3.5 mph - N/A   Overcast
1:53 PM 39.0 °F 36.8 °F 19.0 °F 45% 29.51 in 10.0 mi NNW 3.5 mph - N/A   Overcast
2:53 PM 42.1 °F 38.4 °F 18.0 °F 38% 29.50 in 10.0 mi NNW 5.8 mph - N/A   Overcast
3:53 PM 43.0 °F 38.2 °F 19.0 °F 38% 29.49 in 10.0 mi North 8.1 mph - N/A   Overcast
4:53 PM 43.0 °F 38.8 °F 19.9 °F 40% 29.47 in 10.0 mi North 6.9 mph - N/A   Overcast
5:53 PM 43.0 °F 38.8 °F 19.9 °F 40% 29.47 in 10.0 mi North 6.9 mph - N/A   Overcast
6:53 PM 42.1 °F 38.4 °F 21.9 °F 45% 29.46 in 10.0 mi WNW 5.8 mph - N/A   Overcast
7:53 PM 39.9 °F - 24.1 °F 53% 29.46 in 10.0 mi Calm Calm - N/A   Overcast
8:53 PM 37.9 °F 35.5 °F 24.1 °F 57% 29.46 in 10.0 mi WSW 3.5 mph - N/A   Overcast
9:53 PM 37.0 °F - 25.0 °F 62% 29.46 in 10.0 mi Calm Calm - N/A   Mostly Cloudy
10:53 PM 34.0 °F - 25.0 °F 70% 29.45 in 10.0 mi Calm Calm - N/A   Mostly Cloudy
11:53 PM 35.1 °F - 23.0 °F 61% 29.45 in 10.0 mi Calm Calm - N/A   Mostly Cloudy